1499882400.22,9958,20.88,73914.8,6.57,-4.21,-0.53,0,*75
1499882401.43,9959,20.88,73906.0,6.57,-4.29,-0.53,0,*7C
1499882402.64,9960,20.88,73902.8,6.53,-4.33,-0.57,0,*7D
1499882403.84,9961,20.88,73906.3,6.57,-4.29,-0.57,0,*73
1499882405.05,9962,20.88,73906.3,6.57,-4.33,-0.57,0,*7B
1499882406.26,9963,20.88,73906.3,6.57,-4.57,-0.57,0,*78
1499882407.46,9964,20.88,73908.5,6.57,-4.61,-0.65,0,*7B
1499882408.69,9965,20.88,73896.3,6.57,-4.81,-0.65,0,*74
1499882409.92,9966,20.88,73894.5,6.53,-4.89,-0.57,0,*7A
1499882411.14,9967,20.88,73902.3,6.57,-5.11,-0.53,0,*7B
1499882412.37,9968,20.88,73886.8,6.53,-5.27,-0.45,0,*72
1499882413.61,9969,20.88,73876.5,6.57,-5.27,-0.41,0,*73
1499882414.82,9970,20.88,73862.0,6.57,-5.47,-0.33,0,*78
1499882416.06,9971,20.88,73866.0,6.53,-5.65,-0.37,0,*79
1499882417.28,9972,20.88,73866.0,6.53,-5.65,-0.29,0,*75
1499882418.52,9973,20.88,73860.5,6.53,-5.69,-0.19,0,*7B
1499882419.75,9974,20.88,73864.0,6.53,-5.89,-0.19,0,*72
1499882420.99,9975,20.94,73868.0,6.53,-5.93,-0.11,0,*70
1499882422.22,9976,20.88,73860.0,6.53,-5.93,0.05,0,*6B
1499882423.47,9977,20.88,73856.5,6.57,-5.85,0.29,0,*57
1499882424.72,9978,20.88,73876.5,6.53,-5.93,0.29,0,*5B
1499882425.97,9979,20.88,73876.0,6.53,-5.89,0.47,0,*59
1499882427.22,9980,20.88,73872.3,6.53,-5.69,0.67,0,*53
1499882428.47,9981,20.88,73886.8,6.53,-5.65,0.79,0,*51
1499882429.69,9982,20.94,73884.8,6.53,-5.43,0.91,0,*50
1499882430.94,9983,20.88,73892.3,6.53,-5.27,0.91,0,*53
1499882432.16,9984,20.88,73888.8,6.57,-4.93,1.05,0,*62
1499882433.38,9985,20.88,73894.5,6.57,-4.69,1.01,0,*62
1499882434.57,9986,20.88,73898.8,6.53,-4.49,0.97,0,*59
1499882435.77,9987,20.88,73886.0,6.57,-4.17,1.01,0,*69
1499882437.01,9988,20.88,73872.8,6.57,-4.05,0.91,0,*5D
1499882438.23,9989,20.88,73876.3,6.53,-3.87,0.75,0,*5F
1499882439.47,9990,20.88,73874.0,6.53,-3.75,0.55,0,*58
1499882440.71,9991,20.88,73878.5,6.57,-3.55,0.41,0,*5A
1499882441.94,9992,20.94,73878.0,6.57,-3.39,0.29,0,*5D
1499882443.14,9993,20.88,73878.8,6.53,-3.35,0.05,0,*6A
1499882444.35,9994,20.88,73876.8,6.57,-3.31,-0.07,0,*42
1499882445.58,9995,20.88,73882.5,6.53,-3.35,-0.23,0,*75
1499882446.8,9996,20.88,73882.8,6.57,-3.19,-0.41,0,*78
1499882448.01,9997,20.88,73888.0,6.57,-3.27,-0.57,0,*73
1499882449.22,9998,20.88,73880.5,6.57,-3.27,-0.57,0,*7C
1499882450.43,9999,20.88,73882.0,6.57,-3.31,-0.57,0,*7A
1499882451.64,10000,20.88,73878.5,6.53,-3.35,-0.61,0,*4E
1499882452.86,10001,20.88,73882.8,6.57,-3.31,-0.57,0,*4A
1499882454.07,10002,20.88,73876.8,6.57,-3.39,-0.33,0,*43
1499882455.31,10003,20.88,73890.0,6.53,-3.47,-0.33,0,*4F
1499882456.54,10004,20.88,73892.8,6.57,-3.39,-0.15,0,*41
1499882457.75,10005,20.88,73882.5,6.57,-3.39,-0.03,0,*77
1499882458.96,10006,20.88,73886.3,6.57,-3.39,0.09,0,*53
1499882460.21,10007,20.88,73886.0,6.53,-3.43,0.17,0,*64
1499882461.44,10008,20.94,73890.3,6.57,-3.15,0.41,0,*6F
1499882462.67,10009,20.88,73886.0,6.53,-3.19,0.37,0,*67
1499882463.9,10010,20.88,73886.3,6.57,-2.95,0.41,0,*6F
1499882465.11,10011,20.88,73884.5,6.57,-2.83,0.43,0,*6B
1499882466.33,10012,20.88,73886.0,6.57,-2.83,0.41,0,*6A
1499882467.58,10013,20.88,73894.0,6.57,-2.67,0.41,0,*61
1499882468.84,10014,20.88,73894.8,6.57,-2.67,0.41,0,*66
1499882470.09,10015,20.88,73890.0,6.53,-2.67,0.29,0,*6D
1499882471.34,10016,20.88,73894.8,6.57,-2.51,0.33,0,*64
1499882472.59,10017,20.88,73894.0,6.57,-2.55,0.33,0,*61
1499882473.85,10018,20.88,73884.8,6.57,-2.51,0.29,0,*61
1499882475.1,10019,20.88,73884.5,6.57,-2.51,0.29,0,*60
1499882476.36,10020,20.88,73890.5,6.57,-2.63,0.33,0,*60
1499882477.61,10021,20.88,73888.3,6.53,-2.67,0.37,0,*65
1499882478.86,10022,20.88,73894.3,6.57,-2.67,0.67,0,*67
1499882480.12,10023,20.88,73892.5,6.57,-2.71,0.79,0,*6E
1499882481.35,10024,20.88,73894.0,6.57,-2.83,0.91,0,*62
1499882482.55,10025,20.88,73902.3,6.57,-2.91,1.05,0,*5C
1499882483.79,10026,20.88,73896.8,6.61,-2.87,1.29,0,*53
1499882485.0,10027,20.88,73904.3,6.59,-2.87,1.37,0,*56
1499882486.23,10028,20.88,73894.8,6.61,-2.99,1.47,0,*5A
1499882487.43,10029,20.88,73886.8,6.59,-2.99,1.59,0,*5F
1499882488.67,10030,20.88,73884.8,6.61,-2.87,1.67,0,*5E
1499882489.87,10031,20.88,73892.5,6.59,-2.79,1.67,0,*55
1499882491.11,10032,20.88,73896.3,6.59,-2.67,1.67,0,*59
1499882492.35,10033,20.88,73894.3,6.59,-2.63,1.55,0,*5D
1499882493.59,10034,20.88,73900.0,6.59,-2.63,1.37,0,*5E
1499882494.8,10035,20.88,73896.5,6.59,-2.27,1.33,0,*5B
1499882496.06,10036,20.88,73894.8,6.57,-2.07,1.25,0,*53
1499882497.29,10037,20.88,73890.5,6.57,-1.83,1.01,0,*5B
1499882498.52,10038,20.88,73878.5,6.53,-1.79,0.75,0,*67
1499882499.7,10039,20.88,73874.0,6.59,-1.63,0.43,0,*62
1499882500.91,10040,20.88,73878.3,6.57,-1.67,0.09,0,*58
1499882502.12,10041,20.88,73884.3,6.57,-1.75,-0.19,0,*46
1499882503.33,10042,20.88,73878.5,6.57,-1.75,-0.45,0,*4C
1499882504.54,10043,20.88,73896.0,6.57,-1.79,-0.69,0,*4F
1499882505.8,10044,20.88,73894.8,6.57,-1.95,-0.93,0,*4F
1499882507.06,10045,20.88,73888.5,6.57,-2.07,-1.01,0,*7C
1499882508.3,10046,20.88,73890.5,6.53,-2.31,-1.13,0,*7D
1499882509.52,10047,20.88,73894.5,6.57,-2.31,-1.21,0,*79
1499882510.76,10048,20.88,73894.5,6.57,-2.51,-1.17,0,*75
1499882512.0,10049,20.88,73894.5,6.57,-2.51,-1.17,0,*74
1499882513.25,10050,20.88,73894.3,6.57,-2.63,-1.21,0,*78
1499882514.49,10051,20.88,73896.5,6.53,-2.71,-1.21,0,*7E
1499882515.71,10052,20.88,73900.0,6.57,-2.91,-1.21,0,*77
1499882516.93,10053,20.88,73902.3,6.57,-3.19,-1.29,0,*7F
1499882518.17,10054,20.88,73896.8,6.57,-3.55,-1.55,0,*7B
1499882519.39,10055,20.88,73898.8,6.57,-3.91,-1.63,0,*77
1499882520.59,10056,20.88,73890.8,6.59,-4.13,-1.63,0,*77
1499882521.79,10057,20.88,73886.5,6.59,-4.29,-1.71,0,*7C
1499882523.01,10058,20.88,73886.3,6.57,-4.57,-1.75,0,*70
1499882524.24,10059,20.88,73888.0,6.53,-4.85,-1.71,0,*7E
1499882525.48,10060,20.88,73892.3,6.57,-4.85,-1.63,0,*73
1499882526.7,10061,20.88,73892.3,6.59,-5.03,-1.59,0,*7A
1499882527.94,10062,20.88,73898.3,6.57,-5.23,-1.51,0,*7D
1499882529.19,10063,20.88,73898.3,6.59,-5.31,-1.35,0,*73
1499882530.41,10064,20.88,73900.0,6.59,-5.43,-1.35,0,*71
1499882531.63,10065,20.88,73904.0,6.61,-5.55,-1.29,0,*71
1499882532.85,10066,20.88,73902.5,6.59,-5.69,-1.25,0,*7A
1499882534.09,10067,20.88,73896.0,6.59,-5.81,-1.13,0,*78
1499882535.33,10068,20.88,73900.0,6.59,-5.85,-1.01,0,*70
1499882536.57,10069,20.88,73904.8,6.59,-5.89,-0.89,0,*4C
1499882537.79,10070,20.88,73908.8,6.59,-5.85,-0.73,0,*4D
1499882539.0,10071,20.88,73914.3,6.59,-5.89,-0.65,0,*47
1499882540.22,10072,20.88,73900.0,6.59,-5.85,-0.53,0,*4D
1499882541.46,10073,20.88,73900.3,6.61,-5.73,-0.49,0,*45
1499882542.67,10074,20.88,73902.3,6.59,-5.73,-0.37,0,*40
1499882543.89,10075,20.88,73898.3,6.59,-5.73,-0.37,0,*41
1499882545.12,10076,20.88,73898.5,6.59,-5.61,-0.27,0,*40
1499882546.33,10077,20.88,73902.3,6.59,-5.61,-0.29,0,*4F
1499882547.57,10078,20.88,73906.8,6.59,-5.61,-0.27,0,*4E
1499882548.8,10079,20.88,73908.0,6.59,-5.61,-0.27,0,*4F
1499882550.02,10080,20.88,73902.5,6.61,-5.55,-0.29,0,*4B
1499882551.22,10081,20.88,73900.3,6.59,-5.55,-0.37,0,*4E
1499882552.43,10082,20.88,73898.8,6.61,-5.47,-0.29,0,*4A
1499882553.63,10083,20.88,73896.0,6.59,-5.55,-0.41,0,*4D
1499882554.83,10084,20.88,73902.5,6.59,-5.47,-0.49,0,*41
1499882556.02,10085,20.88,73898.3,6.59,-5.47,-0.49,0,*40
1499882557.22,10086,20.88,73894.0,6.59,-5.55,-0.49,0,*40
1499882558.42,10087,20.88,73896.8,6.59,-5.55,-0.53,0,*4A
1499882559.62,10088,20.88,73894.5,6.59,-5.55,-0.49,0,*4E
1499882560.83,10089,20.88,73894.0,6.61,-5.35,-0.49,0,*42
1499882562.02,10090,20.88,73896.0,6.59,-5.35,-0.41,0,*49
1499882563.22,10091,20.88,73896.3,6.59,-5.35,-0.49,0,*40
1499882564.43,10092,20.88,73906.3,6.59,-5.19,-0.29,0,*4B
1499882565.64,10093,20.88,73904.3,6.59,-5.19,-0.29,0,*4A
1499882566.85,10094,20.88,73904.8,6.59,-5.07,-0.29,0,*42
1499882568.1,10095,20.88,73904.8,6.59,-5.03,-0.27,0,*49
1499882569.35,10096,20.88,73910.8,6.57,-4.93,-0.27,0,*4C
1499882570.56,10097,20.88,73914.8,6.59,-4.81,-0.11,0,*45
1499882571.78,10098,20.88,73908.3,6.59,-4.77,-0.11,0,*43
1499882572.97,10099,20.88,73910.3,6.59,-4.65,-0.11,0,*41
1499882574.15,10100,20.88,73914.3,6.59,-4.53,-0.03,0,*76
1499882575.36,10101,20.88,73916.8,6.59,-4.41,0.13,0,*68
1499882576.54,10102,20.88,73920.8,6.59,-4.29,0.09,0,*5E
1499882577.72,10103,20.88,73922.8,6.59,-4.29,0.01,0,*57
1499882578.9,10104,20.88,73922.3,6.59,-4.17,0.01,0,*5D
1499882580.11,10105,20.88,73922.8,6.59,-4.13,0.13,0,*6B
1499882581.3,10106,20.88,73914.8,6.59,-4.13,-0.03,0,*74
1499882582.49,10107,20.88,73912.5,6.59,-4.17,-0.11,0,*42
1499882583.71,10108,20.88,73908.8,6.57,-4.17,-0.15,0,*47
1499882584.93,10109,20.88,73896.5,6.57,-4.09,-0.15,0,*49
1499882586.16,10110,20.88,73892.3,6.57,-4.09,-0.27,0,*40
1499882587.39,10111,20.88,73910.5,6.57,-3.95,-0.15,0,*42
1499882588.63,10112,20.88,73906.3,6.57,-3.71,-0.15,0,*4B
1499882589.86,10113,20.88,73902.0,6.57,-3.71,-0.07,0,*79
1499882591.1,10114,20.88,73896.3,6.57,-3.55,-0.07,0,*78
1499882592.29,10115,20.88,73896.3,6.59,-3.35,-0.03,0,*75
1499882593.48,10116,20.88,73892.3,6.59,-3.27,-0.03,0,*75
1499882594.67,10117,20.88,73876.3,6.59,-3.11,-0.11,0,*42
1499882595.89,10118,20.88,73880.5,6.59,-2.99,-0.27,0,*49
1499882597.1,10119,20.88,73882.3,6.57,-2.79,-0.33,0,*4D
1499882598.34,10120,20.88,73884.0,6.57,-2.67,-0.53,0,*4E
1499882599.57,10121,20.88,73876.8,6.57,-2.67,-0.65,0,*4A
1499882600.81,10122,20.88,73882.8,6.57,-2.63,-0.77,0,*4E
1499882602.04,10123,20.88,73874.8,6.57,-2.39,-0.89,0,*41
1499882603.28,10124,20.88,73872.0,6.57,-2.43,-1.09,0,*72
1499882604.5,10125,20.88,73886.3,6.57,-2.27,-1.21,0,*7B
1499882605.73,10126,20.88,73884.5,6.53,-2.19,-1.35,0,*74
1499882606.95,10127,20.88,73874.8,6.57,-2.19,-1.75,0,*75
1499882608.19,10128,20.88,73872.3,6.57,-2.31,-2.03,0,*72
1499882609.4,10129,20.88,73868.0,6.57,-2.43,-2.27,0,*70
1499882610.67,10130,20.88,73870.5,6.53,-2.55,-2.51,0,*7A
1499882611.94,10131,20.88,73876.3,6.53,-2.59,-2.75,0,*71
1499882613.18,10132,20.88,73874.8,6.53,-2.67,-2.99,0,*7D
1499882614.38,10133,20.88,73874.3,6.53,-2.83,-3.23,0,*76
1499882615.59,10134,20.88,73876.3,6.53,-2.87,-3.35,0,*72
1499882616.82,10135,20.88,73880.8,6.53,-2.99,-3.51,0,*7E
1499882618.06,10136,20.88,73876.3,6.53,-3.11,-3.51,0,*7C
1499882619.29,10137,20.88,73886.5,6.53,-3.11,-3.59,0,*75
1499882620.54,10138,20.88,73894.5,6.57,-3.15,-3.59,0,*7A
1499882621.78,10139,20.88,73898.8,6.57,-3.27,-3.59,0,*7A
1499882623.0,10140,20.88,73898.0,6.53,-3.35,-3.75,0,*7D
1499882624.26,10141,20.88,73902.0,6.53,-3.47,-3.71,0,*7D
1499882625.5,10142,20.88,73910.0,6.57,-3.55,-3.79,0,*71
1499882626.75,10143,20.88,73910.5,6.53,-3.67,-3.71,0,*7D
1499882627.97,10144,20.88,73900.5,6.53,-3.87,-3.83,0,*79
1499882629.17,10145,20.88,73916.3,6.59,-3.91,-3.75,0,*7C
1499882630.39,10146,20.88,73902.0,6.53,-4.25,-3.95,0,*73
1499882631.6,10147,20.88,73904.8,6.53,-4.53,-4.09,0,*71
1499882632.83,10148,20.88,73900.3,6.57,-4.73,-3.95,0,*7A
1499882634.07,10149,20.88,73896.8,6.53,-4.89,-3.95,0,*7A
1499882635.3,10150,20.88,73900.8,6.53,-5.03,-3.87,0,*72
1499882636.55,10151,20.88,73894.3,6.53,-5.15,-3.75,0,*79
1499882637.8,10152,20.88,73902.0,6.53,-5.27,-3.71,0,*7F
1499882639.03,10153,20.88,73894.8,6.53,-5.51,-3.63,0,*7C
1499882640.28,10154,20.88,73896.5,6.53,-5.51,-3.59,0,*72
1499882641.54,10155,20.88,73896.5,6.53,-5.65,-3.59,0,*74
1499882642.8,10156,20.88,73896.0,6.51,-5.77,-3.47,0,*79
1499882644.04,10157,20.88,73894.3,6.57,-5.85,-3.19,0,*78
1499882645.28,10158,20.88,73896.8,6.53,-5.89,-3.11,0,*77
1499882646.52,10159,20.88,73902.3,6.51,-5.93,-2.87,0,*71
1499882647.77,10160,20.88,73904.3,6.51,-5.97,-2.75,0,*72
1499882649.01,10161,20.88,73906.3,6.51,-5.97,-2.47,0,*72
1499882650.26,10162,20.88,73902.3,6.51,-5.97,-2.11,0,*72
1499882651.5,10163,20.88,73902.3,6.51,-5.97,-1.87,0,*7F
1499882652.74,10164,20.88,73910.5,6.51,-5.93,-1.59,0,*7F
1499882654.02,10165,20.88,73904.0,6.51,-5.93,-1.43,0,*75
1499882655.28,10166,20.88,73904.0,6.51,-5.89,-1.09,0,*73
1499882656.54,10167,20.88,73906.0,6.51,-5.81,-0.85,0,*4F
1499882657.78,10168,20.88,73904.5,6.51,-5.69,-0.49,0,*46
1499882658.99,10169,20.88,73906.8,6.51,-5.43,-0.33,0,*42
1499882660.23,10170,20.88,73904.3,6.53,-5.27,-0.07,0,*7D
1499882661.45,10171,20.88,73906.3,6.51,-4.99,0.17,0,*66
1499882662.68,10172,20.88,73902.3,6.51,-4.65,0.55,0,*60
1499882663.9,10173,20.81,73896.3,6.51,-4.37,0.67,0,*67
1499882665.14,10174,20.88,73900.0,6.51,-4.21,0.79,0,*68
1499882666.4,10175,20.88,73900.5,6.51,-4.01,0.79,0,*6B
1499882667.63,10176,20.88,73900.5,6.51,-3.87,0.79,0,*61
1499882668.89,10177,20.88,73900.8,6.51,-3.59,0.75,0,*6F
1499882670.15,10178,20.88,73898.0,6.51,-3.43,0.79,0,*67
1499882671.38,10179,20.88,73898.8,6.51,-3.31,0.67,0,*6C
1499882672.61,10180,20.88,73894.5,6.51,-3.07,0.63,0,*6B
1499882673.84,10181,20.88,73896.0,6.51,-2.95,0.41,0,*60
1499882675.1,10182,20.88,73896.3,6.51,-2.75,0.41,0,*6D
1499882676.35,10183,20.88,73896.0,6.51,-2.71,0.37,0,*69
1499882677.61,10184,20.88,73896.3,6.51,-2.47,0.29,0,*64
1499882678.84,10185,20.88,73900.3,6.53,-2.31,0.29,0,*66
1499882680.05,10186,20.88,73900.3,6.49,-2.15,0.21,0,*60
1499882681.3,10187,20.88,73902.5,6.53,-1.99,0.25,0,*69
1499882682.56,10188,20.88,73896.3,6.53,-1.99,0.25,0,*66
1499882683.81,10189,20.88,73904.8,6.53,-1.87,0.17,0,*69
1499882685.06,10190,20.81,73894.5,6.53,-1.83,0.13,0,*61
1499882686.29,10191,20.88,73898.8,6.53,-1.79,0.13,0,*65
1499882687.54,10192,20.81,73896.3,6.51,-1.83,0.13,0,*61
1499882688.74,10193,20.88,73900.5,6.51,-1.79,0.05,0,*52
1499882689.97,10194,20.88,73900.3,6.51,-1.67,0.17,0,*69
1499882691.15,10195,20.88,73900.5,6.49,-1.59,0.09,0,*53
1499882692.37,10196,20.88,73902.8,6.51,-1.55,0.13,0,*6E
1499882693.59,10197,20.88,73906.3,6.51,-1.59,0.17,0,*67
1499882694.82,10198,20.88,73910.0,6.51,-1.55,0.13,0,*60
1499882696.05,10199,20.88,73910.5,6.51,-1.55,0.25,0,*64
1499882697.27,10200,20.88,73908.8,6.53,-1.59,0.25,0,*69
1499882698.49,10201,20.81,73906.5,6.51,-1.55,0.25,0,*66
1499882699.72,10202,20.88,73910.5,6.53,-1.67,0.29,0,*6A
1499882700.95,10203,20.88,73908.8,6.57,-1.67,0.33,0,*64
1499882702.17,10204,20.88,73908.5,6.53,-1.67,0.41,0,*62
1499882703.38,10205,20.88,73908.3,6.57,-1.55,0.43,0,*64
1499882704.6,10206,20.88,73910.8,6.57,-1.55,0.67,0,*61
1499882705.82,10207,20.81,73910.5,6.53,-1.55,0.67,0,*64
1499882707.08,10208,20.88,73904.5,6.53,-1.43,0.91,0,*65
1499882708.31,10209,20.81,73904.0,6.57,-1.33,0.95,0,*63
1499882709.53,10210,20.88,73910.0,6.57,-1.17,1.05,0,*55
1499882710.77,10211,20.88,73908.8,6.57,-1.17,1.29,0,*5A
1499882712.03,10212,20.81,73908.5,6.53,-1.05,1.37,0,*51
1499882713.28,10213,20.81,73906.5,6.53,-0.97,1.47,0,*6D
1499882714.5,10214,20.88,73910.8,6.53,-0.97,1.41,0,*6C
1499882715.72,10215,20.88,73908.3,6.57,-0.93,1.41,0,*6D
1499882716.95,10216,20.81,73904.3,6.57,-0.89,1.41,0,*65
1499882718.2,10217,20.88,73900.5,6.53,-0.85,1.29,0,*62
1499882719.43,10218,20.81,73898.8,6.53,-0.73,1.25,0,*68
1499882720.65,10219,20.88,73896.8,6.57,-0.65,1.25,0,*6A
1499882721.88,10220,20.81,73892.8,6.57,-0.65,1.17,0,*61
1499882723.11,10221,20.88,73898.3,6.53,-0.61,1.09,0,*6F
1499882724.3,10222,20.81,73896.0,6.53,-0.57,0.97,0,*5F
1499882725.52,10223,20.88,73898.5,6.53,-0.61,0.79,0,*5B
1499882726.75,10224,20.81,73896.8,6.57,-0.53,0.83,0,*5C
1499882727.97,10225,20.81,73894.3,6.57,-0.45,0.71,0,*57
1499882729.2,10226,20.88,73896.3,6.57,-0.45,0.59,0,*5E
1499882730.42,10227,20.81,73890.3,6.57,-0.45,0.33,0,*53
1499882731.65,10228,20.81,73890.0,6.57,-0.57,0.21,0,*5C
1499882732.87,10229,20.81,73884.8,6.53,-0.61,0.17,0,*59
1499882734.07,10230,20.88,73890.3,6.57,-0.57,0.09,0,*6F
1499882735.28,10231,20.88,73892.3,6.57,-0.65,-0.03,0,*48
1499882736.49,10232,20.88,73892.5,6.57,-0.65,-0.15,0,*7C
1499882737.7,10233,20.81,73880.5,6.53,-0.81,-0.33,0,*77
1499882738.91,10234,20.88,73892.5,6.53,-0.81,-0.33,0,*70
1499882740.12,10235,20.81,73894.8,6.57,-0.81,-0.29,0,*7E
1499882741.35,10236,20.88,73896.3,6.53,-1.13,-0.57,0,*4A
1499882742.57,10237,20.81,73888.3,6.53,-1.33,-0.81,0,*42
1499882743.79,10238,20.81,73894.5,6.53,-1.55,-0.93,0,*4E
1499882745.03,10239,20.81,73880.5,6.53,-1.67,-1.05,0,*70
1499882746.26,10240,20.88,73888.8,6.57,-1.67,-0.93,0,*44
1499882747.53,10241,20.88,73890.5,6.53,-1.83,-1.05,0,*75
1499882748.78,10242,20.81,73896.0,6.53,-1.95,-0.97,0,*4B
1499882750.04,10243,20.88,73900.8,6.53,-1.95,-1.05,0,*70
1499882751.31,10244,20.88,73898.5,6.57,-2.03,-1.13,0,*78
1499882752.55,10245,20.88,73894.8,6.53,-2.11,-1.25,0,*7B
1499882753.79,10246,20.81,73890.5,6.53,-2.07,-1.21,0,*7B
1499882755.03,10247,20.81,73892.0,6.53,-1.95,-1.21,0,*72
1499882756.26,10248,20.88,73892.3,6.53,-2.07,-1.25,0,*71
1499882757.5,10249,20.81,73888.8,6.53,-2.19,-1.43,0,*7F
1499882758.71,10250,20.81,73888.3,6.53,-2.35,-1.59,0,*72
1499882759.95,10251,20.88,73892.3,6.53,-2.67,-1.79,0,*76
1499882761.19,10252,20.81,73900.8,6.51,-2.75,-1.79,0,*74
1499882762.41,10253,20.81,73892.8,6.51,-2.87,-1.71,0,*70
1499882763.66,10254,20.81,73892.0,6.51,-3.11,-1.83,0,*74
1499882764.87,10255,20.81,73884.5,6.51,-3.11,-1.59,0,*72
1499882766.12,10256,20.81,73884.8,6.51,-3.31,-1.35,0,*79
1499882767.34,10257,20.81,73892.5,6.51,-3.31,-1.33,0,*7E
1499882768.56,10258,20.81,73892.5,6.51,-3.31,-1.21,0,*72
1499882769.77,10259,20.81,73892.0,6.49,-3.39,-1.13,0,*73
1499882771.0,10260,20.81,73890.3,6.51,-3.19,-0.97,0,*4F
1499882772.24,10261,20.81,73890.0,6.51,-3.19,-0.97,0,*4E
1499882773.47,10262,20.81,73894.0,6.51,-3.11,-0.85,0,*46
1499882774.71,10263,20.81,73892.8,6.51,-2.71,-0.69,0,*42
1499882775.94,10264,20.81,73888.3,6.53,-2.71,-0.61,0,*4F
1499882777.18,10265,20.81,73884.0,6.51,-2.71,-0.81,0,*42
1499882778.44,10266,20.81,73882.5,6.51,-2.71,-0.85,0,*45
1499882779.69,10267,20.81,73886.0,6.53,-2.75,-0.97,0,*41
1499882780.95,10268,20.88,73886.8,6.51,-2.71,-0.97,0,*48
1499882782.21,10269,20.81,73884.5,6.51,-2.75,-1.09,0,*7B
1499882783.48,10270,20.88,73890.8,6.51,-2.71,-1.09,0,*77
1499882784.74,10271,20.81,73886.5,6.51,-2.71,-1.13,0,*7D
1499882785.98,10272,20.81,73884.8,6.51,-2.71,-1.25,0,*7B
1499882787.21,10273,20.81,73884.0,6.53,-2.71,-1.33,0,*7F
1499882788.48,10274,20.81,73882.0,6.53,-2.71,-1.35,0,*7E
1499882789.69,10275,20.81,73880.3,6.53,-2.83,-1.55,0,*74
1499882790.91,10276,20.81,73882.3,6.57,-2.95,-1.55,0,*74
1499882792.13,10277,20.88,73892.3,6.51,-3.11,-1.71,0,*78
1499882793.35,10278,20.81,73898.0,6.51,-3.19,-1.79,0,*77
1499882794.57,10279,20.81,73914.0,6.51,-3.23,-1.71,0,*77
1499882795.79,10280,20.81,73906.5,6.51,-3.31,-1.71,0,*72
1499882797.02,10281,20.81,73904.5,6.51,-3.35,-1.71,0,*77
1499882798.24,10282,20.81,73894.0,6.53,-3.31,-1.67,0,*75
1499882799.46,10283,20.81,73898.5,6.53,-3.35,-1.67,0,*70
1499882800.68,10284,20.81,73902.3,6.53,-3.31,-1.55,0,*72
1499882801.92,10285,20.81,73900.5,6.53,-3.35,-1.43,0,*70
1499882803.16,10286,20.81,73896.3,6.53,-3.35,-1.43,0,*73
1499882804.43,10287,20.81,73904.0,6.53,-3.47,-1.47,0,*73
1499882805.7,10288,20.81,73908.0,6.53,-3.43,-1.43,0,*7C
1499882806.96,10289,20.81,73904.3,6.53,-3.43,-1.35,0,*7C
1499882808.2,10290,20.81,73904.8,6.53,-3.43,-1.33,0,*72
1499882809.44,10291,20.81,73896.5,6.53,-3.43,-1.33,0,*73
1499882810.67,10292,20.81,73896.0,6.53,-3.43,-1.25,0,*77
1499882811.91,10293,20.81,73888.3,6.53,-3.43,-1.25,0,*76
1499882813.17,10294,20.81,73890.3,6.53,-3.43,-1.35,0,*70
1499882814.41,10295,20.81,73888.3,6.53,-3.43,-1.33,0,*77
1499882815.64,10296,20.81,73890.3,6.53,-3.43,-1.25,0,*73
1499882816.9,10297,20.81,73892.3,6.53,-3.43,-1.13,0,*77
1499882818.16,10298,20.81,73890.0,6.51,-3.43,-1.13,0,*7A
1499882819.43,10299,20.81,73894.5,6.51,-3.43,-1.09,0,*70
1499882820.69,10300,20.81,73898.8,6.53,-3.47,-1.05,0,*7B
1499882821.96,10301,20.81,73900.0,6.51,-3.43,-1.09,0,*70
1499882823.22,10302,20.81,73902.3,6.51,-3.51,-0.97,0,*46
1499882824.48,10303,20.81,73900.8,6.51,-3.51,-0.97,0,*47
1499882825.74,10304,20.81,73904.5,6.53,-3.59,-0.85,0,*49
1499882826.98,10305,20.81,73902.8,6.53,-3.59,-0.73,0,*41
1499882828.22,10306,20.81,73904.0,6.57,-3.59,-0.57,0,*40
1499882829.46,10307,20.81,73902.5,6.53,-3.59,-0.49,0,*4A
1499882830.71,10308,20.81,73900.3,6.53,-3.63,-0.37,0,*45
1499882831.94,10309,20.81,73902.3,6.53,-3.71,-0.29,0,*48
1499882833.15,10310,20.81,73906.0,6.53,-3.75,-0.07,0,*78
1499882834.36,10311,20.81,73904.5,6.53,-3.83,0.05,0,*5F
1499882835.62,10312,20.81,73910.0,6.57,-3.71,0.21,0,*63
1499882836.87,10313,20.81,73910.8,6.53,-3.71,0.41,0,*60
1499882838.13,10314,20.81,73912.3,6.53,-3.63,0.75,0,*63
1499882839.39,10315,20.81,73916.3,6.53,-3.51,0.91,0,*69
1499882840.65,10316,20.81,73914.5,6.53,-3.43,1.13,0,*52
1499882841.9,10317,20.81,73916.3,6.53,-3.43,1.25,0,*56
1499882843.13,10318,20.81,73916.8,6.53,-3.07,1.59,0,*52
1499882844.34,10319,20.81,73916.5,6.53,-2.87,1.83,0,*5D
1499882845.6,10320,20.81,73914.5,6.53,-2.59,2.13,0,*5E
1499882846.8,10321,20.81,73914.0,6.53,-2.23,2.35,0,*56
1499882848.04,10322,20.81,73912.5,6.51,-1.87,2.65,0,*5F
1499882849.3,10323,20.81,73904.8,6.51,-1.47,2.85,0,*5C
1499882850.49,10324,20.81,73900.8,6.49,-1.17,2.91,0,*52
1499882851.74,10325,20.81,73902.0,6.53,-0.85,3.07,0,*6C
1499882852.97,10326,20.81,73902.3,6.53,-0.49,3.15,0,*6C
1499882854.19,10327,20.81,73902.3,6.53,-0.33,3.19,0,*6C
1499882855.41,10328,20.81,73900.5,6.53,-0.07,3.15,0,*58
1499882856.63,10329,20.81,73900.8,6.53,0.17,3.25,0,*46
1499882857.85,10330,20.81,73900.3,6.53,0.41,3.29,0,*41
1499882859.09,10331,20.81,73896.5,6.53,0.67,3.37,0,*4B
1499882860.32,10332,20.81,73902.8,6.53,1.01,3.41,0,*78
1499882861.59,10333,20.81,73900.8,6.57,1.29,3.45,0,*73
1499882862.85,10334,20.81,73898.0,6.57,1.55,3.45,0,*7F
1499882864.11,10335,20.88,73904.0,6.57,1.67,3.33,0,*7E
1499882865.37,10336,20.81,73902.8,6.57,1.85,3.33,0,*71
1499882866.62,10337,20.81,73902.3,6.53,1.97,3.19,0,*7F
1499882867.87,10338,20.81,73904.0,6.57,2.09,3.19,0,*70
1499882869.13,10339,20.81,73902.8,6.57,2.25,3.11,0,*77
1499882870.36,10340,20.81,73900.3,6.57,2.35,3.11,0,*78
1499882871.59,10341,20.81,73906.0,6.57,2.39,2.95,0,*78
1499882872.84,10342,20.81,73902.8,6.57,2.47,2.85,0,*73
1499882874.1,10343,20.81,73906.5,6.57,2.47,2.73,0,*7B
1499882875.34,10344,20.81,73908.5,6.57,2.39,2.61,0,*76
1499882876.58,10345,20.81,73908.0,6.59,2.43,2.51,0,*77
1499882877.81,10346,20.81,73910.0,6.59,2.39,2.39,0,*77
1499882879.03,10347,20.81,73912.5,6.59,2.31,2.17,0,*72
1499882880.26,10348,20.81,73914.5,6.59,2.17,2.01,0,*7E
1499882881.5,10349,20.81,73910.3,6.57,2.01,1.79,0,*7A
1499882882.75,10350,20.81,73902.3,6.57,1.85,1.67,0,*72
1499882884.0,10351,20.81,73896.5,6.57,1.67,1.55,0,*7E
1499882885.26,10352,20.81,73902.3,6.57,1.43,1.33,0,*7B
1499882886.52,10353,20.81,73898.0,6.57,1.17,1.17,0,*7D
1499882887.74,10354,20.81,73894.8,6.57,0.95,1.01,0,*46
1499882888.96,10355,20.81,73888.0,6.57,0.71,1.01,0,*4D
1499882890.21,10356,20.81,73888.3,6.57,0.41,0.91,0,*75
1499882891.44,10357,20.81,73884.3,6.57,0.17,0.79,0,*71
1499882892.67,10358,20.81,73880.0,6.57,-0.19,0.67,0,*52
1499882893.9,10359,20.81,73878.8,6.57,-0.41,0.51,0,*5B
1499882895.07,10360,20.81,73886.8,6.59,-0.61,0.43,0,*5E
1499882896.32,10361,20.81,73884.0,6.57,-0.93,0.41,0,*5E
1499882897.57,10362,20.81,73884.5,6.57,-1.09,0.33,0,*6A
1499882898.8,10363,20.81,73890.3,6.57,-1.33,0.29,0,*69
1499882900.06,10364,20.81,73890.0,6.57,-1.43,0.33,0,*62
1499882901.29,10365,20.81,73896.8,6.57,-1.55,0.29,0,*6F
1499882902.5,10366,20.81,73902.8,6.59,-1.71,0.33,0,*6F
1499882903.73,10367,20.81,73900.0,6.59,-1.87,0.25,0,*60
1499882904.99,10368,20.81,73902.3,6.61,-2.03,0.21,0,*6F
1499882906.19,10369,20.81,73906.3,6.59,-2.15,0.13,0,*63
1499882907.43,10370,20.81,73898.0,6.57,-2.27,0.21,0,*65
1499882908.65,10371,20.81,73896.3,6.57,-2.39,0.17,0,*6E
1499882909.83,10372,20.81,73898.3,6.59,-2.35,0.09,0,*50
1499882911.04,10373,20.81,73892.8,6.59,-2.51,0.09,0,*53
1499882912.24,10374,20.81,73890.3,6.59,-2.59,0.01,0,*54
1499882913.45,10375,20.81,73888.5,6.59,-2.75,-0.03,0,*74
1499882914.66,10376,20.81,73894.3,6.59,-2.75,-0.03,0,*77
1499882915.88,10377,20.81,73888.0,6.61,-2.79,-0.11,0,*42
1499882917.09,10378,20.81,73888.0,6.57,-2.83,-0.03,0,*7E
1499882918.29,10379,20.81,73886.5,6.57,-2.83,-0.07,0,*7B
1499882919.47,10380,20.81,73894.5,6.59,-2.91,0.01,0,*5B
1499882920.65,10381,20.81,73892.0,6.59,-2.91,-0.03,0,*75
1499882921.86,10382,20.81,73892.5,6.61,-2.99,-0.03,0,*75
1499882923.04,10383,20.81,73896.5,6.59,-3.03,0.01,0,*52